• In Russia
  • List of Countries
  • For 7 days
  • Water Temperature
  • Satellite Maps
  • Weather Map
  • Weather Widgets
  • user-avatar
    Login

    Hourly Weather Rangpur

    Today, 24 May, Thursday

    Time Temperature Precipitation Wind Pressure Humidity
    00:00 +28°C° 0 mm 2 mps 751 mmHg 82%
    01:00 +28°C° 0.6 mm 2 mps 751 mmHg 83%
    02:00 +28°C° 0.6 mm 2 mps 750 mmHg 84%
    03:00 +28°C° 0.6 mm 2 mps 750 mmHg 85%
    04:00 +28°C° 0.2 mm 2 mps 750 mmHg 85%
    05:00 +28°C° 0.2 mm 2 mps 750 mmHg 86%
    06:00 +28°C° 0.2 mm 2 mps 750 mmHg 86%
    07:00 +29°C° 0.9 mm 3 mps 751 mmHg 81%
    08:00 +31°C° 0.9 mm 3 mps 751 mmHg 75%
    09:00 +33°C° 0.9 mm 4 mps 751 mmHg 69%
    10:00 +34°C° 1 mm 4 mps 751 mmHg 65%
    11:00 +35°C° 1 mm 3 mps 750 mmHg 62%
    12:00 +35°C° 1 mm 3 mps 750 mmHg 59%
    13:00 +36°C° 0.8 mm 3 mps 750 mmHg 58%
    14:00 +36°C° 0.8 mm 3 mps 749 mmHg 57%
    15:00 +36°C° 0.8 mm 2 mps 749 mmHg 56%
    16:00 +36°C° 0.4 mm 2 mps 749 mmHg 59%
    17:00 +36°C° 0.4 mm 2 mps 749 mmHg 62%
    18:00 +34°C° 0.4 mm 1 mps 748 mmHg 65%
    19:00 +34°C° 1 mm 2 mps 749 mmHg 69%
    20:00 +33°C° 1 mm 3 mps 749 mmHg 74%
    21:00 +30°C° 1 mm 3 mps 750 mmHg 79%
    22:00 +30°C° 1.5 mm 4 mps 750 mmHg 82%
    23:00 +29°C° 1.5 mm 4 mps 750 mmHg 84%

    Tomorrow, 25 May, Friday

    Time Temperature Precipitation Wind Pressure Humidity
    00:00 +29°C° 1.5 mm 4 mps 750 mmHg 87%
    01:00 +28°C° 1.2 mm 3 mps 750 mmHg 89%
    02:00 +28°C° 1.2 mm 3 mps 749 mmHg 90%
    03:00 +28°C° 1.2 mm 3 mps 749 mmHg 92%
    04:00 +28°C° 2.5 mm 3 mps 749 mmHg 92%
    05:00 +27°C° 2.5 mm 3 mps 749 mmHg 93%
    06:00 +27°C° 2.5 mm 3 mps 749 mmHg 93%
    07:00 +28°C° 2.3 mm 3 mps 750 mmHg 90%
    08:00 +29°C° 2.3 mm 3 mps 750 mmHg 87%
    09:00 +30°C° 2.3 mm 3 mps 751 mmHg 84%
    10:00 +30°C° 1.3 mm 4 mps 751 mmHg 82%
    11:00 +32°C° 1.3 mm 4 mps 751 mmHg 80%
    12:00 +32°C° 1.3 mm 5 mps 750 mmHg 79%
    13:00 +33°C° 0.6 mm 5 mps 750 mmHg 76%
    14:00 +34°C° 0.6 mm 4 mps 749 mmHg 73%
    15:00 +35°C° 0.6 mm 4 mps 748 mmHg 70%
    16:00 +34°C° 1.8 mm 4 mps 748 mmHg 73%
    17:00 +33°C° 1.8 mm 4 mps 747 mmHg 77%
    18:00 +33°C° 1.8 mm 4 mps 747 mmHg 80%
    19:00 +32°C° 1.3 mm 4 mps 748 mmHg 83%
    20:00 +30°C° 1.3 mm 5 mps 748 mmHg 86%
    21:00 +29°C° 1.3 mm 5 mps 749 mmHg 88%
    22:00 +29°C° 3.1 mm 5 mps 749 mmHg 89%
    23:00 +28°C° 3.1 mm 5 mps 749 mmHg 90%

    Day after tomorrow, 26 May, Saturday

    Time Temperature Precipitation Wind Pressure Humidity
    00:00 +28°C° 3.1 mm 4 mps 749 mmHg 91%
    01:00 +28°C° 1.4 mm 4 mps 749 mmHg 91%
    02:00 +28°C° 1.4 mm 4 mps 749 mmHg 90%
    03:00 +28°C° 1.4 mm 3 mps 749 mmHg 90%
    04:00 +28°C° 1.3 mm 4 mps 749 mmHg 91%
    05:00 +28°C° 1.3 mm 4 mps 749 mmHg 91%
    06:00 +28°C° 1.3 mm 4 mps 749 mmHg 92%
    07:00 +29°C° 0.2 mm 4 mps 749 mmHg 88%
    08:00 +30°C° 0.2 mm 4 mps 750 mmHg 85%
    09:00 +30°C° 0.2 mm 4 mps 750 mmHg 82%
    10:00 +32°C° 0.1 mm 4 mps 750 mmHg 79%
    11:00 +33°C° 0.1 mm 5 mps 750 mmHg 75%
    12:00 +34°C° 0.1 mm 5 mps 750 mmHg 72%
    13:00 +34°C° 0.1 mm 5 mps 750 mmHg 71%
    14:00 +35°C° 0.1 mm 5 mps 749 mmHg 70%
    15:00 +35°C° 0.1 mm 6 mps 748 mmHg 69%
    16:00 +34°C° 0.3 mm 6 mps 748 mmHg 73%
    17:00 +33°C° 0.3 mm 5 mps 748 mmHg 77%
    18:00 +32°C° 0.3 mm 5 mps 747 mmHg 80%
    19:00 +32°C° 0.8 mm 5 mps 748 mmHg 83%
    20:00 +30°C° 0.8 mm 4 mps 749 mmHg 85%
    21:00 +29°C° 0.8 mm 4 mps 750 mmHg 87%
    22:00 +29°C° 2.6 mm 4 mps 750 mmHg 89%
    23:00 +28°C° 2.6 mm 4 mps 750 mmHg 91%

    27 May, Sunday

    Time Temperature Precipitation Wind Pressure Humidity
    00:00 +28°C° 2.6 mm 4 mps 750 mmHg 92%
    01:00 +28°C° 1.7 mm 4 mps 750 mmHg 92%
    02:00 +28°C° 1.7 mm 4 mps 749 mmHg 92%
    03:00 +28°C° 1.7 mm 4 mps 749 mmHg 92%
    04:00 +28°C° 1.2 mm 4 mps 749 mmHg 92%
    05:00 +28°C° 1.2 mm 4 mps 750 mmHg 92%
    06:00 +28°C° 1.2 mm 4 mps 750 mmHg 92%
    07:00 +28°C° 0.1 mm 4 mps 750 mmHg 90%
    08:00 +29°C° 0.1 mm 4 mps 751 mmHg 87%
    09:00 +30°C° 0.1 mm 4 mps 751 mmHg 85%
    10:00 +32°C° 0.1 mm 4 mps 751 mmHg 80%
    11:00 +33°C° 0.1 mm 4 mps 751 mmHg 75%
    12:00 +35°C° 0.1 mm 4 mps 750 mmHg 70%
    13:00 +35°C° 0.6 mm 4 mps 750 mmHg 67%
    14:00 +36°C° 0.6 mm 4 mps 749 mmHg 64%
    15:00 +37°C° 0.6 mm 4 mps 748 mmHg 61%
    16:00 +36°C° 0.5 mm 4 mps 748 mmHg 65%
    17:00 +35°C° 0.5 mm 4 mps 747 mmHg 69%
    18:00 +34°C° 0.5 mm 4 mps 747 mmHg 72%
    19:00 +33°C° 0.8 mm 5 mps 748 mmHg 76%
    20:00 +32°C° 0.8 mm 5 mps 749 mmHg 80%
    21:00 +30°C° 0.8 mm 5 mps 749 mmHg 84%
    22:00 +29°C° 3.3 mm 5 mps 750 mmHg 86%
    23:00 +29°C° 3.3 mm 5 mps 750 mmHg 88%

    28 May, Monday

    Time Temperature Precipitation Wind Pressure Humidity
    00:00 +28°C° 3.3 mm 5 mps 750 mmHg 91%
    01:00 +28°C° 3 mm 4 mps 750 mmHg 91%
    02:00 +28°C° 3 mm 4 mps 750 mmHg 92%
    03:00 +27°C° 3 mm 3 mps 750 mmHg 93%
    04:00 +27°C° 0.5 mm 3 mps 750 mmHg 92%
    05:00 +28°C° 0.5 mm 3 mps 750 mmHg 92%
    06:00 +28°C° 0.5 mm 4 mps 750 mmHg 91%
    07:00 +29°C° 0.2 mm 4 mps 750 mmHg 86%
    08:00 +30°C° 0.2 mm 3 mps 751 mmHg 82%
    09:00 +33°C° 0.2 mm 3 mps 751 mmHg 77%
    10:00 +34°C° 0.4 mm 3 mps 751 mmHg 72%
    11:00 +35°C° 0.4 mm 3 mps 750 mmHg 67%
    12:00 +36°C° 0.4 mm 3 mps 750 mmHg 62%
    13:00 +36°C° 0.4 mm 3 mps 749 mmHg 61%
    14:00 +36°C° 0.4 mm 3 mps 748 mmHg 59%
    15:00 +37°C° 0.4 mm 3 mps 747 mmHg 58%
    16:00 +36°C° 0.1 mm 3 mps 747 mmHg 61%
    17:00 +35°C° 0.1 mm 3 mps 747 mmHg 65%
    18:00 +35°C° 0.1 mm 3 mps 746 mmHg 68%
    19:00 +34°C° 0.8 mm 3 mps 747 mmHg 72%
    20:00 +32°C° 0.8 mm 4 mps 747 mmHg 77%
    21:00 +30°C° 0.8 mm 4 mps 748 mmHg 81%
    22:00 +30°C° 0.5 mm 4 mps 748 mmHg 83%
    23:00 +29°C° 0.5 mm 4 mps 748 mmHg 84%

    29 May, Tuesday

    Time Temperature Precipitation Wind Pressure Humidity
    00:00 +29°C° 0.5 mm 3 mps 748 mmHg 86%
    01:00 +28°C° 0.8 mm 3 mps 748 mmHg 87%
    02:00 +28°C° 0.8 mm 3 mps 747 mmHg 88%
    03:00 +27°C° 0.8 mm 3 mps 747 mmHg 89%
    04:00 +27°C° 0.3 mm 3 mps 747 mmHg 89%
    05:00 +27°C° 0.3 mm 3 mps 747 mmHg 89%
    06:00 +27°C° 0.3 mm 4 mps 747 mmHg 89%
    07:00 +28°C° 0.1 mm 4 mps 748 mmHg 84%
    08:00 +30°C° 0.1 mm 4 mps 748 mmHg 79%
    09:00 +32°C° 0.1 mm 4 mps 748 mmHg 74%
    10:00 +33°C° 0 mm 4 mps 748 mmHg 68%
    11:00 +34°C° 0 mm 4 mps 748 mmHg 63%
    12:00 +36°C° 0 mm 4 mps 747 mmHg 57%
    13:00 +36°C° 0 mm 3 mps 747 mmHg 55%
    14:00 +37°C° 0 mm 3 mps 746 mmHg 53%
    15:00 +37°C° 0 mm 2 mps 745 mmHg 50%
    16:00 +37°C° 0.1 mm 2 mps 745 mmHg 53%
    17:00 +36°C° 0.1 mm 2 mps 745 mmHg 55%
    18:00 +36°C° 0.1 mm 2 mps 745 mmHg 58%
    19:00 +34°C° 0.5 mm 2 mps 746 mmHg 61%
    20:00 +32°C° 0.5 mm 2 mps 746 mmHg 65%
    21:00 +31°C° 0.5 mm 2 mps 746 mmHg 69%
    22:00 +30°C° 1.2 mm 2 mps 747 mmHg 73%
    23:00 +30°C° 1.2 mm 2 mps 747 mmHg 77%
    Show more